| time (UTC) | temp F | wind direction | speed knots | gust knots | rain 1hr in | rain 24hr in | rain mn in | humidity % | barometer mb |
| 20260508053735 | 92 | 214 | 0.9 | 3.5 | 0.00 | 0.03 | 0.00 | 36 | 1007.9 |
| 20260508053404 | 92 | 231 | 1.7 | 3.5 | 0.00 | 0.03 | 0.00 | 36 | 1007.9 |
| 20260508051707 | 93 | 206 | 0.0 | 2.6 | 0.00 | 0.03 | 0.00 | 37 | 1008.2 |
| 20260508051357 | 92 | 200 | 0.0 | 3.5 | 0.00 | 0.03 | 0.00 | 36 | 1008.7 |
| 20260508045704 | 89 | 285 | 1.7 | 2.6 | 0.00 | 0.03 | 0.00 | 39 | 1008.8 |
| 20260508045149 | 91 | 212 | 0.9 | 2.6 | 0.00 | 0.03 | 0.00 | 39 | 1009.0 |
| 20260508044145 | 90 | 259 | 1.7 | 2.6 | 0.00 | 0.03 | 0.00 | 40 | 1009.2 |
| 20260508042703 | 90 | 158 | 0.0 | 1.7 | 0.00 | 0.03 | 0.00 | 41 | 1009.3 |
| 20260508041703 | 88 | 201 | 0.0 | 2.6 | 0.00 | 0.03 | 0.00 | 42 | 1009.4 |
| 20260508040703 | 89 | 167 | 0.0 | 2.6 | 0.00 | 0.03 | 0.00 | 42 | 1009.6 |
| 20260508035703 | 88 | 189 | 0.0 | 1.7 | 0.00 | 0.03 | 0.00 | 43 | 1009.8 |
| 20260508035352 | 87 | 166 | 0.0 | 2.6 | 0.00 | 0.03 | 0.00 | 44 | 1009.9 |
| 20260508035348 | 87 | 202 | 0.0 | 1.7 | 0.00 | 0.03 | 0.00 | 42 | 1009.9 |
| 20260508033634 | 88 | 205 | 0.9 | 2.6 | 0.00 | 0.03 | 0.00 | 43 | 1009.9 |
| 20260508031704 | 87 | 191 | 0.0 | 1.7 | 0.00 | 0.03 | 0.00 | 43 | 1009.9 |
| 20260508030704 | 87 | 154 | 0.9 | 1.7 | 0.00 | 0.03 | 0.00 | 45 | 1009.9 |
| 20260508030150 | 86 | 187 | 0.0 | 0.9 | 0.00 | 0.03 | 0.00 | 46 | 1010.0 |
| 20260508024703 | 86 | 198 | 0.0 | 0.9 | 0.00 | 0.03 | 0.00 | 46 | 1010.0 |
| 20260508023703 | 85 | 164 | 0.0 | 0.9 | 0.00 | 0.03 | 0.00 | 48 | 1010.0 |
| 20260508023630 | 84 | 207 | 0.0 | 2.6 | 0.00 | 0.03 | 0.00 | 50 | 1010.1 |
| 20260508021703 | 83 | 168 | 0.9 | 1.7 | 0.00 | 0.03 | 0.00 | 50 | 1010.1 |
| 20260508020703 | 83 | 172 | 0.0 | 0.9 | 0.00 | 0.03 | 0.00 | 51 | 1010.0 |
| 20260508015703 | 82 | 126 | 1.7 | 1.7 | 0.00 | 0.03 | 0.00 | 52 | 1010.1 |
| 20260508014703 | 81 | 198 | 0.0 | 2.6 | 0.00 | 0.03 | 0.00 | 54 | 1009.9 |
| 20260508013703 | 80 | 159 | 0.0 | 1.7 | 0.00 | 0.03 | 0.00 | 55 | 1009.9 |
| 20260508013153 | 80 | 163 | 0.0 | 0.9 | 0.00 | 0.03 | 0.00 | 55 | 1009.7 |
| 20260508012641 | 79 | 168 | 0.0 | 0.9 | 0.00 | 0.03 | 0.00 | 56 | 1009.7 |
| 20260508010702 | 78 | 184 | 0.0 | 0.9 | 0.00 | 0.03 | 0.00 | 57 | 1009.6 |
| 20260508010140 | 78 | 181 | 0.0 | 1.7 | 0.00 | 0.03 | 0.00 | 57 | 1009.4 |
| 20260508004703 | 78 | 174 | 0.0 | 0.9 | 0.00 | 0.03 | 0.00 | 58 | 1009.3 |
| 20260508004632 | 77 | 179 | 0.0 | 0.9 | 0.00 | 0.03 | 0.00 | 59 | 1009.2 |
| 20260508002658 | 76 | 174 | 0.9 | 0.9 | 0.00 | 0.03 | 0.00 | 60 | 1009.0 |
| 20260508001654 | 76 | 179 | 0.0 | 0.9 | 0.00 | 0.03 | 0.00 | 60 | 1008.9 |
| 20260508000654 | 75 | 179 | 0.0 | 0.0 | 0.00 | 0.03 | 0.00 | 61 | 1008.9 |
| 20260507235655 | 75 | 178 | 0.0 | 0.0 | 0.00 | 0.03 | 0.00 | 61 | 1008.8 |
| 20260507234656 | 74 | 180 | 0.0 | 0.9 | 0.00 | 0.03 | 0.00 | 62 | 1008.5 |
| 20260507233654 | 74 | 178 | 0.0 | 0.0 | 0.00 | 0.03 | 0.00 | 62 | 1008.5 |
| 20260507233145 | 74 | 187 | 0.0 | 0.0 | 0.00 | 0.03 | 0.00 | 62 | 1008.4 |
| 20260507231654 | 74 | 185 | 0.0 | 0.0 | 0.00 | 0.03 | 0.00 | 62 | 1008.5 |
| 20260507230656 | 73 | 184 | 0.0 | 0.0 | 0.00 | 0.03 | 0.00 | 63 | 1008.3 |
| 20260507230558 | 73 | 178 | 0.0 | 0.9 | 0.00 | 0.03 | 0.00 | 63 | 1008.3 |
| 20260507230552 | 73 | 184 | 0.0 | 0.0 | 0.00 | 0.03 | 0.00 | 62 | 1008.4 |
| 20260507223654 | 73 | 181 | 0.0 | 2.6 | 0.00 | 0.03 | 0.00 | 62 | 1008.2 |
| 20260507222656 | 73 | 166 | 0.9 | 0.9 | 0.00 | 0.03 | 0.00 | 63 | 1008.0 |
| 20260507221654 | 73 | 181 | 0.0 | 0.9 | 0.00 | 0.03 | 0.00 | 63 | 1008.0 |
| 20260507220655 | 73 | 184 | 0.0 | 0.0 | 0.00 | 0.03 | 0.00 | 62 | 1007.9 |
| 20260507215654 | 73 | 184 | 0.0 | 0.0 | 0.00 | 0.03 | 0.00 | 62 | 1007.9 |
| 20260507214857 | 73 | 186 | 0.0 | 0.0 | 0.00 | 0.03 | 0.00 | 62 | 1007.8 |
| 20260507214654 | 73 | 188 | 0.0 | 0.0 | 0.00 | 0.03 | 0.00 | 62 | 1007.7 |
| 20260507212823 | 73 | 185 | 0.0 | 0.0 | 0.00 | 0.03 | 0.00 | 62 | 1007.7 |
| 20260507211820 | 74 | 185 | 0.0 | 0.0 | 0.00 | 0.03 | 0.00 | 62 | 1007.7 |
| 20260507210816 | 74 | 185 | 0.0 | 0.0 | 0.00 | 0.03 | 0.00 | 61 | 1007.6 |
| 20260507205811 | 74 | 177 | 0.0 | 0.0 | 0.00 | 0.03 | 0.00 | 61 | 1007.6 |
| 20260507204809 | 74 | 176 | 0.0 | 1.7 | 0.00 | 0.03 | 0.00 | 61 | 1007.6 |
| 20260507203803 | 74 | 173 | 0.0 | 1.7 | 0.00 | 0.03 | 0.00 | 61 | 1007.6 |
| 20260507203308 | 74 | 180 | 0.0 | 1.7 | 0.00 | 0.03 | 0.00 | 61 | 1007.6 |
| 20260507201758 | 74 | 176 | 0.0 | 2.6 | 0.00 | 0.03 | 0.00 | 62 | 1007.5 |
| 20260507200756 | 73 | 149 | 0.9 | 1.7 | 0.00 | 0.03 | 0.00 | 62 | 1007.5 |
| 20260507195751 | 74 | 175 | 0.0 | 0.9 | 0.00 | 0.03 | 0.00 | 61 | 1007.5 |
| 20260507195258 | 74 | 176 | 0.0 | 0.9 | 0.00 | 0.03 | 0.00 | 61 | 1007.4 |
| 20260507193744 | 74 | 153 | 0.9 | 0.9 | 0.00 | 0.03 | 0.00 | 61 | 1007.6 |
| 20260507193250 | 74 | 175 | 0.0 | 0.9 | 0.00 | 0.03 | 0.00 | 62 | 1007.8 |
| 20260507191734 | 75 | 140 | 0.9 | 0.9 | 0.00 | 0.03 | 0.00 | 62 | 1008.0 |
| 20260507190731 | 75 | 175 | 0.0 | 0.9 | 0.00 | 0.03 | 0.00 | 62 | 1008.2 |
| 20260507190230 | 75 | 176 | 0.0 | 0.9 | 0.00 | 0.03 | 0.00 | 62 | 1008.2 |
| 20260507184723 | 75 | 176 | 0.0 | 0.9 | 0.00 | 0.03 | 0.00 | 62 | 1008.3 |
| 20260507183719 | 75 | 182 | 0.0 | 0.9 | 0.00 | 0.03 | 0.00 | 62 | 1008.5 |
| 20260507182716 | 75 | 177 | 0.0 | 0.0 | 0.00 | 0.03 | 0.00 | 62 | 1008.4 |
| 20260507181713 | 75 | 177 | 0.0 | 0.9 | 0.00 | 0.03 | 0.00 | 62 | 1008.6 |
| 20260507181209 | 75 | 180 | 0.0 | 0.0 | 0.00 | 0.03 | 0.00 | 62 | 1008.6 |
| 20260507175725 | 75 | 184 | 0.0 | 0.0 | 0.00 | 0.03 | 0.00 | 62 | 1008.6 |
| 20260507175705 | 75 | 183 | 0.0 | 0.0 | 0.00 | 0.03 | 0.00 | 62 | 1008.6 |
| 20260507173707 | 75 | 186 | 0.0 | 0.0 | 0.00 | 0.03 | 0.00 | 62 | 1008.7 |
| 20260507172711 | 75 | 164 | 0.0 | 0.9 | 0.00 | 0.03 | 0.00 | 62 | 1008.7 |
| 20260507172700 | 75 | 180 | 0.0 | 1.7 | 0.00 | 0.03 | 0.00 | 62 | 1008.6 |
| 20260507171156 | 75 | 182 | 0.0 | 0.9 | 0.00 | 0.03 | 0.03 | 62 | 1008.8 |
| 20260507170659 | 75 | 184 | 0.0 | 0.0 | 0.00 | 0.03 | 0.00 | 62 | 1008.7 |
| 20260507164652 | 75 | 178 | 0.0 | 0.9 | 0.00 | 0.03 | 0.03 | 62 | 1008.9 |
| 20260507163652 | 76 | 186 | 0.0 | 0.0 | 0.00 | 0.03 | 0.03 | 61 | 1009.0 |
| 20260507163148 | 75 | 188 | 0.0 | 0.0 | 0.00 | 0.03 | 0.03 | 62 | 1009.2 |
| 20260507161655 | 76 | 180 | 0.0 | 0.0 | 0.00 | 0.03 | 0.03 | 61 | 1009.5 |
| 20260507160652 | 76 | 181 | 0.0 | 0.9 | 0.00 | 0.03 | 0.03 | 61 | 1009.8 |
| 20260507160154 | 76 | 176 | 0.0 | 0.0 | 0.00 | 0.03 | 0.03 | 62 | 1009.7 |
| 20260507154651 | 76 | 189 | 0.0 | 0.0 | 0.00 | 0.03 | 0.03 | 62 | 1009.7 |
| 20260507153651 | 75 | 188 | 0.0 | 0.0 | 0.00 | 0.03 | 0.03 | 62 | 1009.9 |
| 20260507152653 | 76 | 188 | 0.0 | 0.0 | 0.00 | 0.03 | 0.03 | 62 | 1010.0 |
| 20260507152346 | 75 | 188 | 0.0 | 0.0 | 0.00 | 0.03 | 0.03 | 62 | 1009.9 |
| 20260507152339 | 76 | 188 | 0.0 | 0.0 | 0.00 | 0.03 | 0.03 | 61 | 1009.9 |
| 20260507145639 | 75 | 188 | 0.0 | 0.0 | 0.00 | 0.03 | 0.03 | 62 | 1009.7 |
| 20260507144640 | 75 | 184 | 0.0 | 0.9 | 0.03 | 0.03 | 0.03 | 62 | 1009.7 |
| 20260507144130 | 75 | 182 | 0.0 | 0.0 | 0.03 | 0.03 | 0.03 | 62 | 1009.9 |
| 20260507142639 | 75 | 180 | 0.0 | 0.0 | 0.03 | 0.03 | 0.03 | 62 | 1009.5 |
| 20260507142133 | 75 | 185 | 0.0 | 0.9 | 0.03 | 0.03 | 0.03 | 62 | 1009.6 |
| 20260507140639 | 74 | 178 | 0.0 | 7.8 | 0.03 | 0.03 | 0.03 | 63 | 1009.3 |
| 20260507135635 | 74 | 196 | 0.0 | 1.7 | 0.03 | 0.00 | 0.02 | 63 | 1009.2 |
| 20260507134632 | 73 | 172 | 0.0 | 1.7 | 0.00 | 0.00 | 0.00 | 63 | 1009.1 |
| 20260507133631 | 74 | 176 | 0.0 | 2.6 | 0.00 | 0.00 | 0.00 | 61 | 1008.8 |
| 20260507132634 | 74 | 172 | 0.0 | 1.7 | 0.00 | 0.00 | 0.00 | 62 | 1008.6 |
| 20260507131630 | 74 | 175 | 0.0 | 2.6 | 0.00 | 0.00 | 0.00 | 62 | 1008.3 |
| 20260507130631 | 70 | 172 | 0.0 | 0.0 | 0.00 | 0.00 | 0.00 | 79 | 1008.0 |
| 20260507125631 | 75 | 196 | 0.0 | 0.0 | 0.00 | 0.00 | 0.00 | 61 | 1007.7 |
| 20260507125112 | 74 | 192 | 0.0 | 0.0 | 0.00 | 0.00 | 0.00 | 61 | 1007.4 |
| 20260507123633 | 75 | 192 | 0.0 | 0.0 | 0.00 | 0.00 | 0.00 | 60 | 1007.2 |
| 20260507122630 | 74 | 178 | 0.0 | 0.0 | 0.00 | 0.00 | 0.00 | 61 | 1007.2 |
| 20260507122533 | 74 | 181 | 0.0 | 0.0 | 0.00 | 0.00 | 0.00 | 61 | 1006.8 |
| 20260507121818 | 74 | 184 | 0.0 | 0.0 | 0.00 | 0.00 | 0.00 | 61 | 1007.0 |
| 20260507115631 | 74 | 168 | 0.0 | 0.9 | 0.00 | 0.00 | 0.00 | 60 | 1006.6 |
| 20260507114630 | 74 | 177 | 0.0 | 1.7 | 0.00 | 0.00 | 0.00 | 60 | 1006.5 |
| 20260507113631 | 74 | 173 | 0.0 | 1.7 | 0.00 | 0.00 | 0.00 | 59 | 1006.7 |
| 20260507112630 | 74 | 169 | 0.9 | 3.5 | 0.00 | 0.00 | 0.00 | 60 | 1006.6 |
| 20260507111631 | 74 | 177 | 0.9 | 3.5 | 0.00 | 0.00 | 0.00 | 59 | 1006.8 |
| 20260507111117 | 74 | 148 | 0.9 | 5.2 | 0.00 | 0.00 | 0.00 | 60 | 1006.7 |
| 20260507105632 | 74 | 157 | 0.9 | 5.2 | 0.00 | 0.00 | 0.00 | 59 | 1006.7 |
| 20260507104632 | 73 | 174 | 0.0 | 2.6 | 0.00 | 0.00 | 0.00 | 60 | 1006.5 |
| 20260507103630 | 75 | 154 | 0.0 | 2.6 | 0.00 | 0.00 | 0.00 | 59 | 1006.3 |
| 20260507102631 | 74 | 153 | 0.0 | 1.7 | 0.00 | 0.00 | 0.00 | 59 | 1006.3 |
| 20260507101631 | 75 | 176 | 0.0 | 1.7 | 0.00 | 0.00 | 0.00 | 59 | 1006.2 |
| 20260507101111 | 74 | 174 | 0.0 | 1.7 | 0.00 | 0.00 | 0.00 | 59 | 1005.7 |